Regional Weather Roundup
Issued by NWS

Home | Current Version | Previous Version | Graphics & Text | Print | Product List | Glossary Off
Versions: 1 2 3 4 5 6 7 8 9 10 11 12 13 14 15 16 17 18 19 20 21 22 23 24 25 26 27 28 29 30 31 32 33 34 35 36 37 38 39 40 41 42 43 44 45 46 47 48 49 50

000
ASUS43 KDTX 201110
RWRMI
MICHIGAN HOURLY REGIONAL WEATHER ROUNDUP
NATIONAL WEATHER SERVICE DETROIT/PONTIAC MI
700 AM EDT WED SEP 20 2017

NOTE: "FAIR" INDICATES FEW OR NO CLOUDS BELOW 12,000 FEET WITH NO
SIGNIFICANT WEATHER AND/OR OBSTRUCTION TO VISIBILITY.

MIZ047>049-052>055-059>063-066>070-074>076-081>083-201200-
SOUTHEAST LOWER MICHIGAN

CITY           SKY/WX    TMP DP  RH WIND       PRES   REMARKS
ADRIAN         CLOUDY    66  66 100 CALM      30.01R FOG
ALMA           CLOUDY    67  65  94 CALM      29.99R FOG
ANN ARBOR      FOG       67  67 100 CALM      29.99R VSB 1/2
BAD AXE        FOG       64  63  97 CALM      30.00R VSB 3/4
CARO           CLOUDY    63  62  95 CALM      29.99R FOG
DETROIT CITY   FOG       63  63 100 CALM      29.99R VSB 1/4
DETROIT        FOG       65  65 100 CALM      30.00R VSB 1/4
FLINT          CLOUDY    65  64  97 E5        29.99S FOG
GROSSE ILE     CLOUDY    66  66  99 S3        29.98R FOG
HILLSDALE      CLOUDY    64  63  94 CALM      30.00R FOG
HOWELL         CLOUDY    67  66  98 S3        30.00R FOG

CITY           SKY/WX    TMP DP  RH WIND       PRES   REMARKS
JACKSON        CLOUDY    68  66  93 S3        30.00R FOG
LAMBERTVILLE   CLOUDY    68  66  92 CALM      29.99R FOG
LANSING        CLOUDY    67  65  93 CALM      30.00R FOG
LAPEER         FOG       65  65  97 CALM      30.01R VSB 1/4
MASON          CLOUDY    68  66  93 SE3       29.99R FOG
MONROE         FOG       64  62  93 CALM      29.99R VSB 1/4
MT. CLEMENS    FOG       64  64 100 CALM      29.98R VSB 1/4
PONTIAC        FOG       66  66 100 CALM      30.00R VSB 3/4
PORT HOPE        N/A     66  65  96 SE3       29.99R
PORT HURON     FOG       64  63  94 CALM      30.00R VSB 1/4
TRI CITIES     CLOUDY    67  67 100 CALM      30.00R FOG
MIDLAND        CLOUDY    66  66 100 CALM      29.99R FOG
TROY           FOG       67  66  99 CALM      30.01R VSB 1/4
SAGINAW HB     CLOUDY    63  63 100 CALM      29.99R FOG
$$
MIZ043>046-050>051-056>058-064>065-071>073-077>080-201200-
SOUTHWEST LOWER MICHIGAN

CITY           SKY/WX    TMP DP  RH WIND       PRES   REMARKS
BATTLE CREEK   CLOUDY    67  66  97 S3        29.99R FOG
BENTON HARBOR  FOG       64  63  96 E3        29.96R VSB 1/4
BIG RAPIDS     FOG       64  62  96 CALM      29.99R VSB 1/2
COLDWATER      CLOUDY    66  66 100 CALM      29.99R FOG
FREMONT        CLOUDY    65  65 100 E3        29.97S FOG
HOLLAND        CLOUDY    66  64  93 SE3       29.97S FOG
GRAND RAPIDS   CLOUDY    68  66  93 SW5       29.98R
IONIA          CLOUDY    66  66  99 CALM      29.98R FOG
KALAMAZOO      CLOUDY    67  64  90 CALM      29.99R FOG
LUDINGTON      MOCLDY    63  62  97 E3        29.94F FOG
MARSHALL       MOCLDY    66  65  98 CALM      29.99R FOG
MOUNT PLEASANT FOG       67  65  96 CALM      29.99R VSB 3/4
MUSKEGON       CLOUDY    67  64  90 SE6       29.96F
SOUTH HAVEN    CLOUDY    66  65  96 CALM      29.97R FOG
$$
MIZ016>042-201200-
NORTHERN LOWER MICHIGAN

CITY           SKY/WX    TMP DP  RH WIND       PRES   REMARKS
ALPENA         CLOUDY    66  66 100 CALM      30.01R FOG
BEAVER ISLAND  CLOUDY    63  63  99 SE5       29.97F
BELLAIRE       CLOUDY    60  58  94 CALM      29.98S FOG
CADILLAC       FOG       65  62  90 CALM      29.99S VSB 1
CHARLEVOIX     CLOUDY    62  62 100 E6        30.00F
FRANKFORT      CLOUDY    63  63 100 CALM      29.95F
GAYLORD        FOG       62  60  93 CALM      30.01S VSB 3/4
GRAYLING       FOG       62  60  96 CALM      30.01S VSB 1/2
HARBOR SPRINGS CLOUDY    62  61  95 E5        29.99S FOG
HOUGHTON LAKE  CLOUDY    64  63  96 NE3       30.01R FOG
MANISTEE       MOCLDY    60  59  96 E7        29.95F FOG
OSCODA         CLOUDY    67  67  98 S5        30.00R FOG
PELLSTON       CLOUDY    63  62  97 SE5       30.00S
ROGERS CITY    FOG       64  64  98 CALM      30.02S VSB 1/4
TRAVERSE CITY  CLOUDY    64  61  90 SE3       29.95F
$$
MIZ007>008-015-201200-
EASTERN UPPER MICHIGAN

CITY           SKY/WX    TMP DP  RH WIND       PRES   REMARKS
KINROSS        CLOUDY    62  60  93 SE10      30.00S
MACKINAC ISLAN CLOUDY    65  65 100 SE6       29.99F
NEWBERRY       CLOUDY    61  60  97 SE6       29.97S FOG
S. S. MARIE    CLOUDY    63  58  83 E5        30.00R
MUNISING         N/A     62  62 100 S7        29.92F
$$
MIZ004>006-011>014-085-201200-
CENTRAL UPPER MICHIGAN

CITY           SKY/WX    TMP DP  RH WIND       PRES   REMARKS
MANISTIQUE     CLOUDY    62  56  81 SE7       29.95F
MENOMINEE      CLOUDY    64  63  96 S9        29.91S
SAWYER-GWINN   CLOUDY    61  59  94 S15       29.91S FOG
$$
MIZ001>003-009>011-084-201200-
WESTERN UPPER MICHIGAN

CITY           SKY/WX    TMP DP  RH WIND       PRES   REMARKS
IRON MOUNTAIN  CLOUDY    58  56  93 SE5       29.90R FOG
HOUGHTON       CLOUDY    58  55  90 SE14      29.83S
COPPER HARBOR    N/A     61  56  83 SW10G22   29.83S
IRONWOOD       LGT RAIN  66  59  77 SE10      29.79R
$$

ABBREVIATIONS USED IN REMARKS
   TC - TEMPERATURE IN CELSIUS
  WCI - WIND CHILL INDEX
   HX - HEAT INDEX
  VSB - VISIBILITY




USA.gov is the U.S. government's official web portal to all federal, state and local government web resources and services.